sat.trackr.live / text

‹ back to catalog

STARLINK-33628

NORAD 63067 · 2025-035R

PAYLOAD ACTIVE UNKNOWN

§ Identity

Operator
Country
US
Launch date
2025-02-21
Launch site
AFETR
Launch vehicle
Mass (kg)
RCS (m²)

Purposes: comms

External: N2YO · Heavens-Above · Gunter

§ Orbital elements

Epoch: 2026-09-20T07:42:22.390272Z

Period
94.27 min
Inclination
43.0000°
Eccentricity
0.0001504
Mean motion
15.27583685 rev/d
Perigee alt
482.0 km
Apogee alt
484.1 km
Semi-major
6,861.2 km
B*
3.7907e-4
RAAN
128.1090°
Arg perigee
276.8575°
Mean anomaly
83.2106°
Rev number
8,949

§ Raw data

STARLINK-336281 63067U 25035R   26263.32109248  .00010185  00000+0  37907-3 0  99982 63067  43.0000 128.1090 0001504 276.8575  83.2106 15.27583685 89492

JSON: /api/v1/satellites/63067 · /tle

For live sub-satellite position, see the globe view (requires WebGL).

§ Visibility from observer

Set your observer location to see the next 7 days of passes ≥ 10°. The values pass through the URL so the page stays shareable.

No JS? Fill the form by hand. The geolocation button needs JavaScript.